www.pogodaiklimat.ru

Погода и климат >> Архив погоды >> Бразилия >> Токантинс >> Императрис


ПОГОДА в Императрисе

  • Прогноз погоды в Императрисе
  • Монитор погоды в Императрисе

АРХИВ ПОГОДЫ в Императрисе

Время (UTC), дата Ветер
(напр.,м/с)
 
Видим.   Явления Облачность Т
(С)
Тd
(С)
f
(%)
Тe
(С)
Тes
(С)
Комфортность P
(гПа)
Po
(гПа)
Тmin
(С)
Tmax
(С)
R
(мм)
R24
(мм)
S
(см)
19 11.07 В 1
{3}
н/о н/о +32.4 +17.2 40 +36 +36 очень
душно
1010.3 997.1
20 11.07 В 1
{3}
н/о н/о +32.1 +16.7 40 +35 +35 очень
душно
1010.5 997.2
21 11.07 В 1
{3}
н/о н/о +30.6 +16.3 42 +34 +34 очень
душно
1010.9 997.6
22 11.07 штиль 0
{2}
н/о н/о +28.6 +17.0 49 +32 +32 душно 1011.3 997.9
23 11.07 штиль 0
{1}
н/о н/о +26.9 +17.3 56 +31 +31 душно 1012.0 998.5
00 12.07 штиль 0
{1}
н/о н/о +25.8 +17.5 60 +30 +30 душно 1012.8 999.2
01 12.07 штиль 0
{1}
н/о н/о +24.8 +17.8 65 +29 +29 душно 1013.0 999.4
02 12.07 штиль 0
{1}
н/о н/о +23.8 +17.8 69 +28 +28 душно 1013.3 999.6
03 12.07 штиль 0 н/о н/о +23.0 +17.6 72 +28 +28 душно 1013.0 999.3
04 12.07 штиль 0 н/о н/о +22.4 +17.7 75 +27 +27 душно 1012.6 998.9
05 12.07 штиль 0 н/о н/о +22.0 +17.9 78 +27 +27 душно 1012.3 998.6
06 12.07 штиль 0
{1}
н/о н/о +21.8 +18.2 80 +27 +27 душно 1012.3 998.6
07 12.07 штиль 0
{1}
н/о н/о +21.7 +18.5 82 +26 +26 душно 1012.2 998.5
08 12.07 штиль 0
{1}
н/о н/о +21.4 +18.4 83 +26 +26 душно 1012.3 998.5
09 12.07 штиль 0 н/о н/о +20.6 +17.7 83 +24 +24 комфорт 1012.6 998.8
10 12.07 штиль 0
{1}
н/о н/о +21.2 +18.5 85 +26 +26 душно 1013.2 999.4
11 12.07 штиль 0
{1}
н/о н/о +23.6 +20.6 83 +29 +29 душно 1014.3 1000.6
12 12.07 СВ 1
{3}
н/о н/о +27.5 +22.8 76 +37 +37 очень
душно
1014.1 1000.6
13 12.07 В 2
{4}
н/о н/о +29.2 +22.5 67 +38 +38 очень
душно
1014.1 1000.7
14 12.07 В 2
{4}
н/о н/о +31.3 +22.3 59 +40 +40 очень
душно
1013.3 1000.0
15 12.07 В 1
{4}
н/о н/о +31.9 +21.1 53 +40 +40 очень
душно
1012.7 999.4
16 12.07 В 1
{4}
н/о н/о +33.5 +20.6 47 +40 +40 очень
душно
1011.6 998.4
17 12.07 ЮВ 2
{4}
н/о н/о +31.9 +18.0 44 +36 +36 очень
душно
1010.8 997.5
18 12.07 ЮВ 1
{3}
н/о н/о +33.2 +19.1 43 +38 +38 очень
душно
1010.2 997.0
19 12.07 В 1
{3}
н/о н/о +32.4 +17.7 42 +37 +37 очень
душно
1010.2 997.0
20 12.07 ЮВ 1
{2}
н/о н/о +32.6 +18.3 43 +37 +37 очень
душно
1010.1 996.9
21 12.07 штиль 0
{2}
н/о н/о +31.3 +17.9 45 +36 +36 очень
душно
1010.8 997.5
22 12.07 штиль 0
{1}
н/о н/о +29.2 +18.1 51 +34 +34 очень
душно
1011.5 998.1
23 12.07 штиль 0
{1}
н/о н/о +28.1 +18.8 57 +33 +33 очень
душно
1012.3 998.8
00 13.07 СВ 1
{1}
н/о н/о +27.0 +18.8 61 +32 +32 очень
душно
1012.9 999.4
01 13.07 СВ 1
{2}
н/о н/о +26.3 +18.9 64 +31 +31 душно 1013.4 999.8
02 13.07 штиль 0
{1}
н/о н/о +25.4 +19.0 68 +30 +30 душно 1013.7 1000.1
03 13.07 штиль 0 н/о н/о +25.0 +19.4 71 +30 +30 душно 1013.3 999.7
04 13.07 штиль 0
{1}
н/о н/о +24.3 +19.3 74 +29 +29 душно 1012.9 999.3
05 13.07 штиль 0
{1}
н/о н/о +23.2 +18.9 77 +29 +29 душно 1012.6 998.9
06 13.07 штиль 0 н/о н/о +22.8 +18.9 79 +29 +29 очень
душно
1012.4 998.7
07 13.07 штиль 0 н/о н/о +22.6 +19.0 80 +28 +28 душно 1012.4 998.7
08 13.07 штиль 0 н/о н/о +22.1 +18.7 81 +27 +27 душно 1012.8 999.1
09 13.07 штиль 0 н/о н/о +21.2 +18.1 82 +25 +25 комфорт 1013.4 999.6
10 13.07 штиль 0 н/о н/о +22.0 +19.1 84 +27 +27 душно 1014.0 1000.2
11 13.07 штиль 0
{1}
н/о н/о +24.9 +21.6 82 +32 +32 очень
душно
1014.6 1001.0
12 13.07 В 1
{2}
н/о н/о +28.2 +23.5 76 +38 +38 очень
душно
1014.9 1001.4
14 13.07 В 2
{4}
н/о н/о +30.7 +22.3 61 +40 +40 очень
душно
1014.3 1000.9
15 13.07 В 1
{4}
н/о н/о +32.5 +22.6 56 +42 +42 опасность
перегрева
1013.5 1000.2
17 13.07 В 2
{4}
н/о н/о +33.1 +19.8 46 +39 +39 очень
душно
1011.3 998.1
18 13.07 В 2
{5}
н/о н/о +33.8 +19.2 42 +39 +39 очень
душно
1010.5 997.3
19 13.07 В 2
{4}
н/о н/о +33.1 +18.2 41 +37 +37 очень
душно
1010.0 996.8
20 13.07 В 1
{4}
н/о н/о +32.5 +17.9 42 +37 +37 очень
душно
1010.3 997.1
21 13.07 В 1
{3}
н/о н/о +30.9 +17.6 45 +35 +35 очень
душно
1010.9 997.6
22 13.07 штиль 0
{2}
н/о н/о +29.2 +17.6 50 +34 +34 очень
душно
1011.1 997.7
23 13.07 СВ 1
{1}
н/о н/о +27.6 +18.0 56 +32 +32 очень
душно
1011.9 998.4
00 14.07 штиль 0
{1}
н/о н/о +26.3 +18.3 61 +31 +31 душно 1012.4 998.9
01 14.07 штиль 0
{1}
н/о н/о +24.9 +17.9 65 +29 +29 душно 1012.8 999.2
02 14.07 штиль 0
{1}
н/о н/о +24.5 +18.3 68 +29 +29 душно 1013.1 999.5
03 14.07 штиль 0
{1}
н/о н/о +23.7 +18.1 71 +28 +28 душно 1013.0 999.3
04 14.07 штиль 0
{1}
н/о н/о +22.9 +18.0 74 +28 +28 душно 1012.7 999.0
05 14.07 штиль 0
{1}
н/о н/о +22.6 +18.1 76 +28 +28 душно 1012.0 998.3
06 14.07 штиль 0
{1}
н/о н/о +22.0 +17.9 78 +27 +27 душно 1011.6 997.9
07 14.07 штиль 0 н/о н/о +21.5 +17.7 79 +26 +26 душно 1011.5 997.8
08 14.07 штиль 0 н/о н/о +21.9 +18.3 80 +27 +27 душно 1011.8 998.1
09 14.07 штиль 0 н/о н/о +21.2 +17.9 81 +25 +25 комфорт 1012.4 998.6
10 14.07 штиль 0
{1}
н/о н/о +21.7 +18.6 83 +27 +27 душно 1013.2 999.4
11 14.07 В 1
{2}
н/о н/о +25.2 +21.2 79 +32 +32 очень
душно
1014.0 1000.4
12 14.07 СВ 2
{4}
н/о н/о +26.9 +21.7 73 +34 +34 очень
душно
1014.6 1001.1
13 14.07 СВ 2
{4}
н/о н/о +28.5 +22.6 70 +37 +37 очень
душно
1014.7 1001.2
14 14.07 В 1
{4}
н/о н/о +29.0 +21.8 65 +37 +37 очень
душно
1014.4 1001.0
15 14.07 В 2
{5}
н/о н/о +30.3 +21.1 58 +38 +38 очень
душно
1013.4 1000.0
16 14.07 В 1
{5}
н/о н/о +30.8 +20.4 54 +38 +38 очень
душно
1012.4 999.1
17 14.07 В 1
{4}
н/о н/о +31.2 +19.6 50 +37 +37 очень
душно
1011.3 998.0
18 14.07 В 1
{3}
н/о н/о +32.6 +19.3 45 +38 +38 очень
душно
1010.4 997.2
19 14.07 СВ 1
{4}
н/о н/о +32.6 +18.6 44 +38 +38 очень
душно
1010.2 997.0
20 14.07 В 1
{3}
н/о н/о +31.8 +17.8 43 +36 +36 очень
душно
1010.5 997.2
21 14.07 штиль 0
{3}
н/о н/о +30.1 +17.5 47 +34 +34 очень
душно
1010.9 997.5
22 14.07 штиль 0
{1}
н/о н/о +28.5 +17.8 52 +33 +33 очень
душно
1011.3 997.9
23 14.07 штиль 0
{1}
н/о н/о +27.2 +17.9 57 +32 +32 очень
душно
1012.0 998.5
00 15.07 штиль 0
{1}
н/о н/о +26.0 +18.3 63 +31 +31 очень
душно
1012.5 998.9
01 15.07 штиль 0
{1}
н/о н/о +25.1 +18.0 65 +29 +29 душно 1012.8 999.2
02 15.07 штиль 0
{1}
н/о н/о +23.3 +17.2 69 +29 +29 душно 1013.0 999.3
03 15.07 штиль 0 н/о н/о +22.6 +17.5 73 +28 +28 душно 1012.8 999.1
04 15.07 штиль 0 н/о н/о +22.0 +17.5 76 +27 +27 душно 1012.1 998.4
05 15.07 штиль 0
{1}
н/о н/о +21.9 +17.7 77 +26 +26 душно 1011.6 997.9
06 15.07 штиль 0 н/о н/о +21.2 +17.4 79 +25 +25 комфорт 1011.2 997.4
07 15.07 штиль 0 н/о н/о +20.6 +17.2 81 +24 +24 комфорт 1011.2 997.4
08 15.07 штиль 0 н/о н/о +20.0 +16.8 82 +22 +22 комфорт 1011.4 997.6
09 15.07 штиль 0 н/о н/о +19.5 +16.5 83 +21 +21 комфорт 1011.8 998.0
10 15.07 штиль 0
{1}
н/о н/о +20.8 +18.0 84 +24 +24 комфорт 1012.4 998.6
11 15.07 штиль 0
{1}
н/о н/о +23.8 +20.6 82 +30 +30 очень
душно
1013.3 999.6
12 15.07 штиль 0
{1}
н/о н/о +26.1 +21.8 77 +34 +34 очень
душно
1013.6 1000.0
13 15.07 штиль 0
{2}
н/о н/о +29.1 +22.9 69 +39 +39 очень
душно
1013.5 1000.1
14 15.07 В 1
{3}
н/о н/о +31.2 +22.7 61 +41 +41 опасность
перегрева
1013.2 999.9
15 15.07 В 2
{4}
н/о н/о +31.6 +20.8 53 +39 +39 очень
душно
1012.6 999.3
16 15.07 В 1
{5}
н/о н/о +33.0 +20.6 48 +40 +40 очень
душно
1011.5 998.3
17 15.07 В 1
{4}
н/о н/о +34.0 +21.0 47 +41 +41 опасность
перегрева
1010.6 997.4
18 15.07 В 1
{3}
н/о н/о +33.5 +19.3 43 +39 +39 очень
душно
1009.9 996.7
20 15.07 В 2
{3}
н/о н/о +32.2 +17.5 42 +36 +36 очень
душно
1010.3 997.0
21 15.07 В 1
{3}
н/о н/о +30.5 +17.0 44 +34 +34 очень
душно
1010.5 997.2
22 15.07 штиль 0
{2}
н/о н/о +28.5 +17.5 51 +33 +33 очень
душно
1010.9 997.5
23 15.07 СВ 1
{1}
н/о н/о +27.2 +18.0 57 +32 +32 очень
душно
1011.6 998.1
00 16.07 штиль 0
{1}
н/о н/о +26.0 +18.2 62 +31 +31 очень
душно
1012.4 998.8
01 16.07 штиль 0
{1}
н/о н/о +24.3 +17.9 67 +28 +28 душно 1012.6 999.0
02 16.07 штиль 0 н/о н/о +23.8 +18.3 71 +28 +28 душно 1013.1 999.4
03 16.07 штиль 0 н/о н/о +23.8 +18.7 73 +28 +28 душно 1013.1 999.4
04 16.07 штиль 0 н/о н/о +22.6 +18.2 76 +28 +28 душно 1012.6 998.9
05 16.07 штиль 0
{1}
н/о н/о +22.2 +18.2 78 +27 +27 душно 1012.1 998.4
06 16.07 штиль 0 н/о н/о +21.6 +18.1 80 +26 +26 душно 1011.9 998.2
07 16.07 штиль 0 н/о н/о +22.0 +18.7 82 +27 +27 душно 1012.1 998.4
08 16.07 штиль 0 н/о н/о +21.4 +18.3 83 +26 +26 душно 1012.4 998.6
09 16.07 штиль 0 н/о н/о +21.1 +18.3 84 +25 +25 комфорт 1012.8 999.0
10 16.07 штиль 0
{1}
н/о н/о +21.4 +18.7 85 +26 +26 душно 1013.8 1000.0
11 16.07 штиль 0
{1}
н/о н/о +23.7 +20.6 83 +30 +30 очень
душно
1014.6 1000.9
12 16.07 штиль 0
{1}
н/о н/о +26.7 +22.5 78 +35 +35 очень
душно
1015.0 1001.4
13 16.07 штиль 0
{1}
н/о н/о +29.5 +23.3 69 +40 +40 очень
душно
1014.7 1001.3
14 16.07 СВ 1
{3}
н/о н/о +31.0 +23.0 62 +41 +41 опасность
перегрева
1014.5 1001.1
15 16.07 В 1
{3}
н/о н/о +31.8 +22.5 58 +41 +41 опасность
перегрева
1013.9 1000.6
16 16.07 В 1
{3}
н/о н/о +32.4 +22.5 56 +42 +42 опасность
перегрева
1013.0 999.7
17 16.07 ЮВ 1
{3}
н/о н/о +32.7 +21.6 52 +41 +41 опасность
перегрева
1011.7 998.5
18 16.07 ЮВ 1
{4}
н/о н/о +33.2 +19.2 44 +39 +39 очень
душно
1010.6 997.4
19 16.07 ЮВ 1
{3}
н/о н/о +33.4 +19.1 43 +39 +39 очень
душно
1010.1 996.9
20 16.07 ЮВ 1
{3}
н/о н/о +32.1 +18.1 43 +36 +36 очень
душно
1010.5 997.2
21 16.07 штиль 0
{2}
н/о н/о +29.3 +17.1 48 +33 +33 душно 1011.2 997.8
22 16.07 штиль 0
{1}
н/о н/о +27.3 +18.0 57 +32 +32 очень
душно
1011.6 998.1
23 16.07 штиль 0
{1}
н/о н/о +27.7 +19.7 62 +34 +34 очень
душно
1012.3 998.8
00 17.07 штиль 0
{1}
н/о н/о +26.4 +19.5 66 +32 +32 очень
душно
1012.9 999.4
01 17.07 штиль 0 н/о н/о +24.7 +18.7 69 +29 +29 душно 1013.3 999.7
02 17.07 штиль 0
{1}
н/о н/о +24.0 +19.1 74 +29 +29 душно 1013.9 1000.2
03 17.07 штиль 0 н/о н/о +23.6 +19.2 76 +28 +28 душно 1013.8 1000.1
04 17.07 штиль 0 н/о н/о +23.4 +19.4 78 +30 +30 очень
душно
1013.3 999.6
05 17.07 штиль 0 н/о н/о +23.0 +19.4 80 +29 +29 очень
душно
1013.0 999.3
06 17.07 штиль 0 н/о н/о +22.2 +18.8 81 +28 +28 душно 1012.8 999.1
07 17.07 штиль 0 н/о н/о +22.1 +19.0 83 +28 +28 душно 1012.8 999.1
08 17.07 штиль 0 н/о н/о +22.0 +19.1 84 +27 +27 душно 1013.3 999.6
09 17.07 штиль 0 н/о н/о +21.5 +18.8 85 +26 +26 душно 1013.9 1000.1
10 17.07 штиль 0
{1}
н/о н/о +21.8 +19.2 85 +27 +27 душно 1014.6 1000.8
11 17.07 штиль 0
{1}
н/о н/о +25.1 +21.8 82 +32 +32 очень
душно
1015.1 1001.5
12 17.07 СВ 1
{2}
н/о н/о +27.7 +23.3 77 +37 +37 очень
душно
1015.7 1002.2
13 17.07 СВ 1
{3}
н/о н/о +28.7 +23.4 73 +39 +39 очень
душно
1016.1 1002.6
14 17.07 СВ 1
{2}
н/о н/о +29.1 +23.2 71 +39 +39 очень
душно
1016.2 1002.7
15 17.07 СВ 1
{3}
н/о н/о +28.3 +21.9 68 +36 +36 очень
душно
1016.0 1002.5
16 17.07 СВ 1
{3}
н/о н/о +29.9 +22.8 66 +40 +40 очень
душно
1015.0 1001.6
17 17.07 С 1
{3}
н/о н/о +31.5 +22.9 60 +41 +41 опасность
перегрева
1013.8 1000.5
18 17.07 СВ 1
{3}
н/о н/о +31.5 +21.5 55 +39 +39 очень
душно
1012.6 999.3
19 17.07 СВ 1
{3}
н/о н/о +32.3 +20.8 51 +40 +40 очень
душно
1012.0 998.7
21 17.07 штиль 0
{2}
н/о н/о +29.8 +18.1 49 +34 +34 очень
душно
1012.2 998.8
22 17.07 штиль 0
{1}
н/о н/о +26.4 +17.7 59 +31 +31 душно 1012.9 999.4
23 17.07 штиль 0 н/о н/о +26.5 +19.3 65 +32 +32 очень
душно
1013.3 999.8
00 18.07 штиль 0
{1}
н/о н/о +24.9 +19.0 70 +30 +30 душно 1014.1 1000.5
01 18.07 штиль 0
{1}
н/о н/о +24.5 +19.3 73 +30 +30 очень
душно
1014.8 1001.1
02 18.07 штиль 0
{1}
н/о н/о +24.0 +19.4 75 +29 +29 душно 1015.1 1001.4
03 18.07 штиль 0
{1}
н/о н/о +23.5 +19.2 77 +28 +28 душно 1015.4 1001.7
04 18.07 штиль 0 н/о н/о +23.3 +19.3 78 +30 +30 очень
душно
1015.0 1001.3
06 18.07 штиль 0 н/о н/о +22.7 +19.4 82 +29 +29 очень
душно
1013.9 1000.2
07 18.07 штиль 0
{1}
н/о н/о +23.0 +19.8 82 +30 +30 очень
душно
1013.8 1000.1
08 18.07 штиль 0
{1}
н/о н/о +22.2 +19.2 83 +28 +28 душно 1013.9 1000.2
09 18.07 штиль 0
{1}
н/о н/о +22.1 +19.2 84 +28 +28 душно 1014.2 1000.4
10 18.07 штиль 0 н/о н/о +22.2 +19.4 84 +28 +28 душно 1014.8 1001.0
11 18.07 штиль 0
{1}
н/о н/о +25.7 +22.4 82 +34 +34 очень
душно
1015.5 1001.9
12 18.07 СВ 1
{2}
н/о н/о +27.8 +23.2 76 +37 +37 очень
душно
1015.8 1002.3
13 18.07 В 1
{3}
н/о н/о +29.3 +23.4 71 +40 +40 очень
душно
1016.6 1003.1
15 18.07 В 2
{4}
н/о н/о +31.5 +22.3 58 +41 +41 опасность
перегрева
1015.7 1002.3
16 18.07 В 2
{4}
н/о н/о +32.6 +21.9 53 +41 +41 опасность
перегрева
1014.7 1001.4
17 18.07 В 2
{4}
н/о н/о +32.0 +19.5 48 +38 +38 очень
душно
1013.5 1000.2
18 18.07 ЮВ 1
{4}
н/о н/о +32.7 +18.8 44 +38 +38 очень
душно
1012.3 999.0

 

Местоположение метеостанции Императрис (Токантинс, Бразилия): широта -5.55 долгота -47.67 высота над уровнем моря 128 м.

В архиве по умолчанию представлена погода в Императрисе за последнюю неделю. Архивные данные за месяц целиком и за предыдущие месяцы, начиная с января 2011 года, Вы можете получить, выбрав интересующий диапазон дат из раскрывающегося списка и нажав кнопку "Ввод!".


*Определитесь, кто Вы:
робот инопланетянин человек

Внимание! Время в таблицах - всемирное. Для получения местного времени необходимо прибавить поправку, которая равна -3 ч.

Смотрите также архив погоды в соседних городах и на ближайших метеорологических станциях:

Погода в Арагуатинсе (Токантинс, Бразилия) (51 км)
Погода в Рондон-ду-Паре (Мараньян, Бразилия) (96 км)
Погода в Эстрейту (Мараньян, Бразилия) (125 км)
Погода в Марабе (Пара, Бразилия) (165 км)
Погода в Гражау (Мараньян, Бразилия) (169 км)
Погода в Буритикупу (Мараньян, Бразилия) (192 км)
Погода в Марабе (Пара, Бразилия) (194 км)
Погода в Каролине (Мараньян, Бразилия) (199 км)
Погода в Каролине (Мараньян, Бразилия) (199 км)
Погода в Арагуаине (Токантинс, Бразилия) (200 км)

Пояснения к столбцам:

Ветер - указаны скорость ветра в м/с - средняя за 10 мин, порывы в срок и между сроками (в фигурных скобках) и направление, откуда дует ветер: С - северный, СВ - северо-восточный, В - восточный, ЮВ - юго-восточный, Ю - южный, ЮЗ - юго-западный, З - западный, СЗ - северо-западный.
Видимость - горизонтальная дальность видимости в метрах или километрах. При видимости от 1 до 10 км при отсутствии осадков обычно наблюдается дымка, при ухудшении видимости до 1 км и менее - туман. В сухую погоду видимость может ухудшаться дымом, пылью или мглою.
Явления - указаны атмосферные явления, наблюдавшиеся в срок или в последний час перед сроком; фигурными скобками обозначены явления, наблюдавшиеся между сроками (за 1-3 часа до срока); квадратными скобками обозначены град или гололедные отложения с указанием их диаметра в мм.
Облачность - указаны через наклонную черту общая и нижняя облачность в баллах и высота нижней границы облаков в метрах; квадратными скобками обозначены формы облаков: Ci - перистые, Cs - перисто-слоистые, Cc - перисто-кучевые, Ac - высококучевые, As - высокослоистые, Sc - слоисто-кучевые, Ns - слоисто-дождевые, Cu - кучевые, Cb - кучево-дождевые. Подробнее классификацию облаков см. в Атласе облаков (PDF).
T - Температура воздуха - температура, измеренная на высоте 2 м над землей.
Td - Температура точки росы - температура, при понижении до которой содержащийся в воздухе водяной пар достигнет насыщения.
f - Относительная влажность воздуха - влажноcть воздуха, измеренная на высоте 2 м над землей.
Te - Эффективная температура - температура, которую ощущает одетый по сезону человек в тени. Характеристика душности погоды. При расчете учитывается влияние влажности воздуха и скорости ветра на теплоощущения человека.
Tes - Эффективная температура на солнце - температура, которую ощущает человек, с поправкой на солнечный нагрев. Характеристика знойности погоды. Зависит от высоты солнца над горизонтом, облачности и скорости ветра. Ночью, в пасмурную погоду, а также при ветре 12 м/с и более поправка равна нулю.
P - Атмосферное давление - приведенное к уровню моря атмосферное давление.
Po - Атмосферное давление - измеренное на уровне метеостанции атмосферное давление.
Tmin - Минимальная температура - минимум температуры воздуха на высоте 2 м над землей.
Tmax - Максимальная температура - максимум температуры воздуха на высоте 2 м над землей.
R - Количество осадков - Количество выпавших осадков за период времени, мм. При наведении курсора мыши на число - период времени, за который выпало указанное количество осадков.
R24 - Количество осадков - Количество выпавших осадков за 24 часа, мм.
S - Снежный покров - Высота снежного покрова, см. При наведении курсора мыши на число - состояние снежного покрова и степень покрытия местности в баллах.